Weather History for Owosso, MI

Change the Weather History Date:

Wednesday, December 12, 2012

  Actual Average (KFNT) Record (KFNT)
Temperature  
Mean Temperature 36 °F 28 °F  
Max Temperature 44 °F 35 °F 61 °F (1949)
Min Temperature 29 °F 22 °F -8 °F (1958)
Degree Days  
Heating Degree Days 28 37  
Month to date heating degree days 415  
Since 1 July heating degree days 1896  
Cooling Degree Days 0 0  
Month to date cooling degree days 0  
Year to date cooling degree days 531  
Moisture  
Dew Point 23 °F    
Average Humidity 62    
Maximum Humidity 81    
Minimum Humidity 36    
Precipitation  
Precipitation 0.00 in 0.07 in 1.54 in (1946)
Month to date precipitation 0.82  
Year to date precipitation 30.27  
Snow  
Snow 0.00 in 0.40 in 5.50 in (2010)
Month to date snowfall 4.0  
Since 1 July snowfall 6.9  
Snow Depth -    
Sea Level Pressure  
Sea Level Pressure 30.24 in    
Wind  
Wind Speed 8 mph (SSW)    
Max Wind Speed 14 mph    
Max Gust Speed 21 mph    
Visibility 10 miles    
Events Snow    
T = Trace of Precipitation, MM = Missing Value Source: NWS Daily Summary

Daily Weather History Graph

Daily Weather History Graph

Search for Another Location

Airport:

Trip Planner

Search our weather history database for the weather conditions in past years. The results will help you decide how hot, cold, wet, or windy it might be!

Date:

Astronomy

Dec. 12, 2012 Rise Set
Actual Time 7:58 AM EST 5:02 PM EST
Civil Twilight 7:26 AM EST 5:34 PM EST
Nautical Twilight 6:50 AM EST 6:10 PM EST
Astronomical Twilight 6:16 AM EST 6:44 PM EST
Moon 7:01 AM EST (12/12) 4:38 PM EST (12/12)
Length of Visible Light 10h 07m
Length of Day
9h 03m
Waning Crescent, 1% of the Moon is Illuminated
Dec 12
Waning Crescent
Dec 13
New
Dec 20
First Quarter
Dec 28
Full
Jan 4
Last Quarter

Hourly Weather History & Observations

Time (EST) Temp. Windchill Dew Point Humidity Pressure Visibility Wind Dir Wind Speed Gust Speed Precip Events Conditions
12:15 AM 31.6 °F 23.7 °F 22.5 °F 69% 30.10 in 10.0 mi SSW 9.2 mph - N/A   Overcast
12:35 AM 31.8 °F 23.9 °F 22.6 °F 69% 30.10 in 10.0 mi SSW 9.2 mph - N/A   Overcast
12:54 AM 31.6 °F 23.7 °F 22.8 °F 70% 30.10 in 10.0 mi SSW 9.2 mph - N/A   Overcast
1:15 AM 31.6 °F 22.6 °F 23.0 °F 70% 30.10 in 10.0 mi SSW 11.5 mph - N/A   Overcast
1:35 AM 31.8 °F 23.3 °F 23.0 °F 70% 30.11 in 10.0 mi SSW 10.4 mph - N/A   Overcast
1:54 AM 31.3 °F 23.3 °F 23.0 °F 71% 30.12 in 10.0 mi SSW 9.2 mph - N/A   Overcast
2:15 AM 31.5 °F 24.2 °F 23.4 °F 72% 30.12 in 10.0 mi SSW 8.1 mph - N/A   Overcast
2:35 AM 31.6 °F 24.4 °F 23.5 °F 72% 30.13 in 10.0 mi SSW 8.1 mph - N/A   Overcast
2:55 AM 31.8 °F 23.9 °F 23.5 °F 71% 30.14 in 10.0 mi SSW 9.2 mph - N/A   Overcast
3:15 AM 32.0 °F 23.6 °F 23.7 °F 71% 30.14 in 10.0 mi SSW 10.4 mph - N/A   Overcast
3:35 AM 32.0 °F 24.8 °F 23.9 °F 72% 30.15 in 10.0 mi SSW 8.1 mph 16.1 mph N/A   Overcast
3:55 AM 31.8 °F 26.2 °F 23.9 °F 73% 30.15 in 10.0 mi SSW 5.8 mph - N/A   Overcast
4:15 AM 32.0 °F 26.4 °F 24.1 °F 73% 30.15 in 10.0 mi SSW 5.8 mph - N/A   Overcast
4:35 AM 31.8 °F 24.6 °F 24.3 °F 74% 30.16 in 10.0 mi SSW 8.1 mph - N/A   Overcast
4:55 AM 32.0 °F 25.6 °F 24.6 °F 74% 30.16 in 10.0 mi South 6.9 mph - N/A   Overcast
5:15 AM 32.0 °F 26.4 °F 24.8 °F 75% 30.17 in 10.0 mi SSW 5.8 mph - N/A   Overcast
5:34 AM 32.0 °F 25.6 °F 25.5 °F 77% 30.17 in 10.0 mi SSW 6.9 mph - N/A   Overcast
5:55 AM 32.2 °F 26.7 °F 25.3 °F 76% 30.17 in 10.0 mi South 5.8 mph 16.1 mph N/A   Overcast
6:15 AM 32.0 °F 24.8 °F 24.8 °F 75% 30.18 in 10.0 mi SSW 8.1 mph - N/A   Overcast
6:34 AM 32.0 °F 24.8 °F 25.3 °F 76% 30.20 in 7.0 mi South 8.1 mph - N/A Snow Light Snow
6:55 AM 31.1 °F 23.1 °F 24.8 °F 77% 30.20 in 10.0 mi South 9.2 mph - N/A   Mostly Cloudy
7:15 AM 30.2 °F 23.4 °F 24.3 °F 79% 30.21 in 10.0 mi SW 6.9 mph - N/A   Scattered Clouds
7:35 AM 29.7 °F 23.7 °F 23.9 °F 79% 30.22 in 10.0 mi SSW 5.8 mph - N/A   Scattered Clouds
7:55 AM 29.3 °F 24.3 °F 24.3 °F 81% 30.22 in 10.0 mi South 4.6 mph - N/A   Scattered Clouds
8:15 AM 30.0 °F 23.2 °F 24.8 °F 81% 30.23 in 10.0 mi SSW 6.9 mph - N/A   Mostly Cloudy
8:35 AM 30.9 °F 25.2 °F 25.0 °F 79% 30.24 in 10.0 mi SSW 5.8 mph - N/A   Overcast
8:55 AM 31.1 °F 25.4 °F 25.2 °F 79% 30.25 in 10.0 mi SSW 5.8 mph - N/A   Overcast
9:15 AM 31.1 °F 24.5 °F 25.2 °F 79% 30.26 in 10.0 mi SSW 6.9 mph - N/A   Mostly Cloudy
9:35 AM 32.0 °F 25.6 °F 25.5 °F 77% 30.26 in 10.0 mi SW 6.9 mph - N/A   Mostly Cloudy
9:55 AM 32.9 °F 25.9 °F 25.7 °F 75% 30.27 in 10.0 mi SW 8.1 mph - N/A   Scattered Clouds
10:14 AM 33.8 °F 27.7 °F 25.3 °F 71% 30.28 in 10.0 mi SW 6.9 mph - N/A   Mostly Cloudy
10:35 AM 35.6 °F 30.7 °F 25.7 °F 67% 30.29 in 10.0 mi SW 5.8 mph - N/A   Mostly Cloudy
10:55 AM 37.4 °F 31.4 °F 25.7 °F 63% 30.29 in 10.0 mi SW 8.1 mph - N/A   Mostly Cloudy
11:15 AM 38.7 °F 33.6 °F 25.9 °F 60% 30.29 in 10.0 mi WSW 6.9 mph - N/A   Mostly Cloudy
11:35 AM 39.9 °F 33.9 °F 25.7 °F 57% 30.29 in 10.0 mi SW 9.2 mph - N/A   Mostly Cloudy
11:55 AM 40.3 °F 34.4 °F 25.9 °F 56% 30.29 in 10.0 mi SW 9.2 mph - N/A   Mostly Cloudy
12:15 PM 41.0 °F 35.8 °F 25.7 °F 55% 30.29 in 10.0 mi SSW 8.1 mph - N/A   Scattered Clouds
12:35 PM 42.6 °F 37.2 °F 25.5 °F 51% 30.29 in 10.0 mi SW 9.2 mph 16.1 mph N/A   Clear
12:54 PM 43.3 °F 36.5 °F 24.1 °F 47% 30.28 in 10.0 mi SSW 13.8 mph - N/A   Clear
1:15 PM 43.5 °F 36.7 °F 21.7 °F 42% 30.28 in 10.0 mi SW 13.8 mph 20.7 mph N/A   Clear
1:35 PM 43.9 °F 37.2 °F 20.5 °F 39% 30.27 in 10.0 mi WSW 13.8 mph 19.6 mph N/A   Clear
1:55 PM 44.2 °F 38.8 °F 20.3 °F 39% 30.28 in 10.0 mi WSW 10.4 mph 17.3 mph N/A   Clear
2:15 PM 44.6 °F 38.1 °F 19.6 °F 37% 30.27 in 10.0 mi SSW 13.8 mph - N/A   Clear
2:34 PM 44.6 °F 38.1 °F 19.0 °F 36% 30.27 in 10.0 mi SW 13.8 mph 18.4 mph N/A   Clear
2:55 PM 44.6 °F 38.1 °F 19.2 °F 36% 30.27 in 10.0 mi SSW 13.8 mph 17.3 mph N/A   Clear
3:15 PM 44.2 °F 38.8 °F 18.9 °F 36% 30.28 in 10.0 mi SSW 10.4 mph - N/A   Clear
3:35 PM 44.1 °F 39.5 °F 18.3 °F 36% 30.28 in 10.0 mi SSW 8.1 mph - N/A   Clear
3:55 PM 44.1 °F 38.6 °F 18.5 °F 36% 30.28 in 10.0 mi SSW 10.4 mph - N/A   Clear
4:15 PM 43.7 °F 38.6 °F 19.0 °F 37% 30.29 in 10.0 mi SW 9.2 mph - N/A   Clear
4:35 PM 42.8 °F 38.6 °F 18.7 °F 38% 30.29 in 10.0 mi SSW 6.9 mph - N/A   Clear
4:55 PM 40.5 °F 37.3 °F 19.8 °F 44% 30.29 in 10.0 mi SSW 4.6 mph - N/A   Clear
5:15 PM 39.4 °F 36.1 °F 19.9 °F 46% 30.29 in 10.0 mi South 4.6 mph - N/A   Clear
5:35 PM 37.9 °F 35.5 °F 21.2 °F 51% 30.29 in 10.0 mi SSW 3.5 mph - N/A   Clear
5:55 PM 37.8 °F - 21.2 °F 51% 30.30 in 10.0 mi Calm Calm - N/A   Clear
6:14 PM 36.5 °F 33.9 °F 22.1 °F 56% 30.30 in 10.0 mi South 3.5 mph - N/A   Clear
6:35 PM 37.2 °F 34.7 °F 21.7 °F 54% 30.30 in 10.0 mi South 3.5 mph - N/A   Clear
7:15 PM 36.5 °F - 21.6 °F 55% 30.31 in 10.0 mi Calm Calm - N/A   Clear
7:35 PM 35.2 °F - 21.9 °F 58% 30.31 in 10.0 mi Calm Calm - N/A   Clear
7:55 PM 35.2 °F 31.2 °F 22.1 °F 59% 30.31 in 10.0 mi South 4.6 mph - N/A   Clear
8:15 PM 35.2 °F 29.5 °F 22.1 °F 59% 30.31 in 10.0 mi South 6.9 mph - N/A   Clear
8:35 PM 35.8 °F 30.1 °F 22.6 °F 59% 30.31 in 10.0 mi South 6.9 mph - N/A   Clear
8:55 PM 35.2 °F 29.5 °F 23.2 °F 62% 30.31 in 10.0 mi South 6.9 mph - N/A   Clear
9:15 PM 35.1 °F 30.1 °F 23.7 °F 63% 30.32 in 10.0 mi South 5.8 mph - N/A   Clear
9:35 PM 34.2 °F 30.0 °F 23.9 °F 66% 30.32 in 10.0 mi South 4.6 mph - N/A   Clear
9:54 PM 33.4 °F 28.1 °F 24.3 °F 69% 30.32 in 10.0 mi South 5.8 mph - N/A   Clear
10:35 PM 33.8 °F 27.0 °F 24.6 °F 69% 30.32 in 10.0 mi South 8.1 mph - N/A   Clear
10:55 PM 33.8 °F 27.7 °F 24.3 °F 68% 30.32 in 10.0 mi South 6.9 mph - N/A   Clear
11:15 PM 33.4 °F 27.3 °F 24.3 °F 69% 30.32 in 10.0 mi South 6.9 mph - N/A   Clear
11:35 PM 33.3 °F 27.1 °F 24.3 °F 70% 30.32 in 10.0 mi South 6.9 mph - N/A   Clear
11:55 PM 33.3 °F 27.9 °F 24.1 °F 69% 30.32 in 10.0 mi South 5.8 mph - N/A   Clear